Weather History for Waukegan, IL

Change the Weather History Date:

Sunday, February 3, 2013

  Actual Average Record
Temperature  
Mean Temperature 14 °F -  
Max Temperature 21 °F 30 °F 44 °F (2006)
Min Temperature 7 °F 16 °F -8 °F (2007)
Degree Days  
Heating Degree Days 51 42  
Month to date heating degree days 162 126  
Since 1 July heating degree days 3622 3977  
Cooling Degree Days 0 0  
Month to date cooling degree days 0 0  
Year to date cooling degree days 0 0  
Moisture  
Dew Point 8 °F    
Average Humidity 70    
Maximum Humidity 83    
Minimum Humidity 56    
Precipitation  
Precipitation T in 0.05 in 0.12 in (2008)
Month to date precipitation 0.02 0.15  
Year to date precipitation 1.30 1.54  
Sea Level Pressure  
Sea Level Pressure 30.01 in    
Wind  
Wind Speed 6 mph (West)    
Max Wind Speed 17 mph    
Max Gust Speed 26 mph    
Visibility 6 miles    
Events Snow    
T = Trace of Precipitation, MM = Missing Value Source: NWS Daily Summary

Daily Weather History Graph

Daily Weather History Graph

Search for Another Location

Airport:

Trip Planner

Search our weather history database for the weather conditions in past years. The results will help you decide how hot, cold, wet, or windy it might be!

Date:

Astronomy

Feb. 03, 2013 Rise Set
Actual Time 7:02 AM CST 5:08 PM CST
Civil Twilight 6:33 AM CST 5:38 PM CST
Nautical Twilight 5:59 AM CST 6:11 PM CST
Astronomical Twilight 5:26 AM CST 6:44 PM CST
Moon 12:30 AM CST (2/3) 10:44 AM CST (2/3)
Length of Visible Light 11h 04m
Length of Day
10h 05m
Waning Gibbous, 48% of the Moon is Illuminated
Feb 3
Waning Gibbous
Feb 10
New
Feb 17
First Quarter
Feb 25
Full
Mar 4
Last Quarter

Hourly Weather History & Observations

Time (CST) Temp. Windchill Dew Point Humidity Pressure Visibility Wind Dir Wind Speed Gust Speed Precip Events Conditions
12:52 AM 8.1 °F - -0.9 °F 67% 30.06 in 10.0 mi Calm Calm - N/A   Overcast
2:27 AM 8.6 °F 2.0 °F 1.4 °F 73% 29.96 in 2.5 mi West 3.5 mph - 0.00 in Snow Light Snow
2:36 AM 8.6 °F - 1.4 °F 73% 29.96 in 5.0 mi Calm Calm - 0.00 in Snow Light Snow
3:26 AM 8.6 °F - 3.2 °F 79% 29.93 in 4.0 mi Calm Calm - 0.00 in Snow Light Snow
3:33 AM 8.6 °F 2.0 °F 5.0 °F 85% 29.93 in 6.0 mi West 3.5 mph - 0.00 in   Overcast
3:52 AM 9.0 °F 0.6 °F 5.0 °F 84% 30.01 in 8.0 mi West 4.6 mph - 0.00 in   Overcast
4:22 AM 10.4 °F 4.0 °F 5.0 °F 79% 29.93 in 5.0 mi Variable 3.5 mph - 0.00 in Snow Light Snow
4:52 AM 10.0 °F - 5.0 °F 80% 30.00 in 6.0 mi Calm Calm - 0.00 in   Haze
5:03 AM 10.4 °F - 5.0 °F 79% 29.92 in 7.0 mi Calm Calm - N/A   Overcast
5:24 AM 10.4 °F 4.0 °F 6.8 °F 85% 29.93 in 5.0 mi WSW 3.5 mph - 0.00 in Snow Light Snow
5:36 AM 10.4 °F 4.0 °F 6.8 °F 85% 29.94 in 9.0 mi West 3.5 mph - 0.00 in   Overcast
6:52 AM 10.9 °F 2.9 °F 6.1 °F 81% 30.02 in 5.0 mi SW 4.6 mph - 0.00 in   Haze
7:30 AM 10.4 °F 2.2 °F 6.8 °F 85% 29.94 in 3.0 mi WSW 4.6 mph - 0.00 in Snow Light Snow
7:52 AM 12.0 °F 5.9 °F 7.0 °F 80% 30.02 in 5.0 mi Variable 3.5 mph - 0.00 in   Haze
8:11 AM 12.2 °F 4.3 °F 8.6 °F 85% 29.95 in 3.0 mi Variable 4.6 mph - 0.00 in Snow Light Snow
8:21 AM 12.2 °F 4.3 °F 8.6 °F 85% 29.95 in 2.5 mi Variable 4.6 mph - 0.00 in Snow Light Snow
8:52 AM 14.0 °F 3.9 °F 9.0 °F 80% 30.02 in 2.5 mi West 6.9 mph - 0.00 in Snow Light Snow
9:22 AM 15.8 °F 7.2 °F 8.6 °F 73% 29.95 in 3.0 mi West 5.8 mph - 0.00 in Snow Light Snow
9:32 AM 15.8 °F 6.1 °F 10.4 °F 79% 29.94 in 2.5 mi Variable 6.9 mph - 0.00 in Snow Light Snow
9:52 AM 16.0 °F 7.4 °F 10.0 °F 77% 30.02 in 1.8 mi Variable 5.8 mph - 0.00 in Snow Light Snow
10:19 AM 17.6 °F 5.0 °F 10.4 °F 73% 29.95 in 3.0 mi West 11.5 mph 17.3 mph 0.00 in Snow Light Snow
10:32 AM 17.6 °F 6.4 °F 10.4 °F 73% 29.95 in 6.0 mi West 9.2 mph 18.4 mph 0.00 in   Haze
10:52 AM 18.0 °F 6.9 °F 9.0 °F 68% 30.02 in 8.0 mi West 9.2 mph 20.7 mph 0.00 in   Overcast
11:52 AM 19.0 °F 4.0 °F 8.1 °F 62% 30.04 in 9.0 mi WNW 17.3 mph 26.5 mph N/A   Mostly Cloudy
12:52 PM 19.0 °F 5.6 °F 7.0 °F 59% 30.04 in 9.0 mi WNW 13.8 mph 21.9 mph N/A   Clear
1:52 PM 19.9 °F 6.7 °F 7.0 °F 57% 30.04 in 9.0 mi WNW 13.8 mph 21.9 mph N/A   Clear
2:52 PM 21.0 °F 12.4 °F 8.1 °F 57% 30.05 in 9.0 mi Variable 6.9 mph - N/A   Clear
3:52 PM 19.9 °F 11.1 °F 8.1 °F 60% 30.05 in 9.0 mi WSW 6.9 mph - N/A   Clear
4:52 PM 19.0 °F 10.0 °F 9.0 °F 65% 30.05 in 8.0 mi WSW 6.9 mph - N/A   Clear
5:52 PM 17.1 °F 10.0 °F 7.0 °F 65% 30.07 in 10.0 mi West 4.6 mph - N/A   Partly Cloudy
6:52 PM 16.0 °F 10.4 °F 7.0 °F 68% 30.08 in 10.0 mi West 3.5 mph - N/A   Mostly Cloudy
7:52 PM 17.1 °F 8.7 °F 8.1 °F 68% 30.08 in 10.0 mi West 5.8 mph - N/A   Overcast
8:52 PM 18.0 °F 11.1 °F 9.0 °F 68% 30.08 in 10.0 mi WSW 4.6 mph - N/A   Overcast
9:52 PM 19.0 °F 11.1 °F 10.0 °F 68% 30.09 in 10.0 mi West 5.8 mph - N/A   Overcast
10:30 PM 17.6 °F 7.3 °F 10.4 °F 73% 30.02 in 3.0 mi West 8.1 mph - 0.00 in Snow Light Snow
10:37 PM 17.6 °F 8.2 °F 12.2 °F 79% 30.03 in 2.0 mi West 6.9 mph - 0.00 in Snow Light Snow
10:52 PM 18.0 °F 11.1 °F 12.9 °F 81% 30.09 in 2.5 mi Variable 4.6 mph - 0.00 in Snow Light Snow
11:03 PM 17.6 °F 12.3 °F 12.2 °F 79% 30.02 in 3.0 mi Variable 3.5 mph - 0.00 in Snow Light Snow
11:26 PM 17.6 °F 12.3 °F 12.2 °F 79% 30.02 in 2.5 mi West 3.5 mph - 0.00 in Snow Light Snow
11:52 PM 18.0 °F - 14.0 °F 84% 30.07 in 1.8 mi Calm Calm - 0.00 in Snow Light Snow